Miscellaneous Local Product
Issued by NWS Hastings, NE

Home | Current Version | Previous Version | Graphics & Text | Print | Product List | Glossary On
Versions: 1 2 3 4 5 6 7 8 9 10 11 12 13 14 15 16 17 18 19 20 21 22 23 24 25 26 27 28 29 30 31 32 33 34 35 36 37 38 39 40 41 42 43 44 45 46 47 48 49 50
000
AXUS43 KGID 150202
MISGRI

GID CWA HOURLY WEATHER ROUNDUP
NATIONAL WEATHER SERVICE HASTINGS NE
900 PM CDT MON AUG 14 2017

NOTE: "FAIR" INDICATES FEW OR NO CLOUDS BELOW 12,000 FEET WITH NO
SIGNIFICANT WEATHER AND/OR OBSTRUCTIONS TO VISIBILITY.

...SOUTH CENTRAL NEBRASKA...

CITY           SKY/WX    TMP DP  RH WIND       PRES   REMARKS
GRAND ISLAND   CLOUDY    73  68  84 E8        29.83R
HASTINGS       CLOUDY    77  69  76 E9        29.83R
KEARNEY        CLOUDY    73  69  87 E8        29.82S
ORD            CLOUDY    74  65  73 E6        29.82R
YORK           PTCLDY    72  66  83 NE6       29.84R
AURORA         CLOUDY    72  69  92 NE6       29.83R
LEXINGTON      CLOUDY    76  68  76 E10       29.81F
HOLDREGE       CLOUDY    74  69  82 E10       29.81S
HEBRON         CLOUDY    79  70  74 CALM      29.80R

...NEBRASKA PANHANDLE...

CITY           SKY/WX    TMP DP  RH WIND       PRES   REMARKS
CHADRON        CLOUDY    78  50  37 S21G29    29.77R
ALLIANCE       LGT RAIN  66  60  81 W22G31    29.88R
SCOTTSBLUFF    CLOUDY    66  59  78 SW10      29.84F
SIDNEY         CLOUDY    77  59  53 SE15      29.86R

...WESTERN AND NORTH CENTRAL NEBRASKA...

CITY           SKY/WX    TMP DP  RH WIND       PRES   REMARKS
VALENTINE      CLOUDY    75  61  61 E14       29.83R
AINSWORTH      CLOUDY    70  66  86 E8        29.85R
ONEILL         CLEAR     69  64  83 E8        29.87R
BROKEN BOW     CLOUDY    75  66  73 E7        29.83S
IMPERIAL       CLOUDY    72  59  63 S5        29.81F
NORTH PLATTE   CLOUDY    75  70  84 E10       29.80S
MCCOOK         CLOUDY    76  68  76 E9        29.80R

...EASTERN NEBRASKA...

CITY           SKY/WX    TMP DP  RH WIND       PRES   REMARKS
NORFOLK        CLEAR     72  62  71 E3        29.85R
SO SIOUX CITY  CLEAR     74  61  63 NE5       29.84R
TEKAMAH        CLEAR     68  63  84 NW6       29.83R
COLUMBUS       CLEAR     70  67  90 NE5       29.84R
ALBION         CLEAR     72  68  86 E6        29.86R
OMAHA EPPLEY   PTCLDY    73  60  63 N6        29.81R
OFFUTT AFB     CLEAR     74  61  63 CALM      29.80R
MILLARD        CLEAR     80  58  48 CALM      29.81R
LINCOLN        CLEAR     75  68  78 NE6       29.82R
NEBRASKA CITY  CLEAR     73  72  96 CALM      29.81S
BEATRICE       CLEAR     77  69  75 SE5       29.81R
FALLS CITY     CLEAR     71  67  87 CALM      29.81R

...NORTHERN KANSAS...

CITY           SKY/WX    TMP DP  RH WIND       PRES   REMARKS
GOODLAND       TSTM      72  66  81 S10       29.89R
HILL CITY      CLOUDY    84  61  45 S9        29.78S
NORTON         CLEAR     79  63  57 E3        29.79R
PHILLIPSBURG   CLEAR     81  64  57 NE7       29.77S
SMITH CENTER   CLOUDY    79  66  65 E8        29.78R
HAYS           CLEAR     81  62  52 S9        29.80R
RUSSELL        CLEAR     82  66  58 SE10      29.79R
CONCORDIA      CLOUDY    77  70  79 SE6       29.79R
SALINA         CLEAR     82  67  60 S7        29.79R
TOPEKA         CLOUDY    79  72  79 S3        29.80R



USA.gov is the U.S. government's official web portal to all federal, state and local government web resources and services.